JCSAT-1B

Last updated on Sept. 4, 2017, 12:18 a.m. UTC

1 25067U 97075A   17246.78478059 -.00000189  00000-0  00000+0 0  9994
2 25067   5.6947  58.3084 0021062 113.0565 275.5550  0.98655601 72371
UTC
Height (km)
Latitude
Longitude
Inclination
Orbital Period
UTC large
Height (km)
Speed (km/s)
/
Latitude / Longitude
Inclination (degrees)
Orbital Period (minutes)
Azimuth
Elevation
Range (km)
Doppler Factor
iOS Compass Heading
iOS Angle

Next 30 passes for location: Hong Kong

Rise time Rise Azimuth (degrees) Set time Set Azimuth (degrees) Duration Max altitude (degrees)

No matching passes for this satellites